Hourly Data Report for October 28, 2013

All times are specified in Local Standard Time (LST). Add 1 hour to adjust for Daylight Saving Time where and when it is observed.

SAINT JOHN A
NEW BRUNSWICK

45°18'58.000" N
65°53'24.000" W
108.80 m
8104901
71609
YSJ

Download Data

Hourly Data (October 2013)
Hourly Data Report for October 28, 2013
Temp Definition
°C
Dew Point Temp Definition
°C
Rel Hum Definition
%
Wind Dir Definition
10's deg

Wind Spd Definition
km/h
Visibility Definition
km
Stn Press Definition
kPa
Hmdx Definition


Wind Chill Definition


Weather Definition


TIME
00:00 Legend Double Dagger 5.2 3.9 91 29 10 24.1 99.80     LegendNANA
01:00 Legend Double Dagger 4.5 3.3 92 29 8 24.1 99.85     LegendNANA
02:00 Legend Double Dagger 3.4 1.9 90 29 11 24.1 99.91     Mainly Clear
03:00 Legend Double Dagger 2.4 0.6 88 29 8 24.1 99.96     LegendNANA
04:00 Legend Double Dagger 1.7 -0.6 85 31 7 24.1 99.97     LegendNANA
05:00 Legend Double Dagger 1.7 -1.4 80 29 14 24.1 100.05     Clear
06:00 Legend Double Dagger -0.2 -1.5 91 26 10 24.1 100.07   -4 LegendNANA
07:00 Legend Double Dagger 0.8 -1.3 86 24 10 24.1 100.14     LegendNANA
08:00 Legend Double Dagger 2.0 -0.3 85 26 15 24.1 100.23     Mainly Clear
09:00 Legend Double Dagger 3.8 0.0 76 26 20 24.1 100.28     LegendNANA
10:00 Legend Double Dagger 5.6 -0.2 66 26 17 24.1 100.30     LegendNANA
11:00 Legend Double Dagger 6.7 -0.7 59 26 14 24.1 100.28     Mostly Cloudy
12:00 Legend Double Dagger 7.6 -1.1 54 26 23 24.1 100.24     LegendNANA
13:00 Legend Double Dagger 8.8 -1.3 49 25 17 24.1 100.18     LegendNANA
14:00 Legend Double Dagger 8.1 -0.6 54 23 25 24.1 100.17     Cloudy
15:00 Legend Double Dagger 8.3 0.8 59 23 17 24.1 100.17     LegendNANA
16:00 Legend Double Dagger 8.9 3.1 67 23 27 24.1 100.16     LegendNANA
17:00 Legend Double Dagger 8.1 2.6 68 24 12 24.1 100.22     Mostly Cloudy
18:00 Legend Double Dagger 7.9 0.2 58 29 30 24.1 100.35     LegendNANA
19:00 Legend Double Dagger 4.3 1.2 80 32 21 24.1 100.56     LegendNANA
20:00 Legend Double Dagger 2.5 0.2 85 34 19 24.1 100.73     Mainly Clear
21:00 Legend Double Dagger 1.6 -0.7 85 33 23 24.1 100.87     LegendNANA
22:00 Legend Double Dagger 0.7 -0.6 91 32 17 24.1 101.00     LegendNANA
23:00 Legend Double Dagger 0.4 -1.2 89 33 23 24.1 101.06     Mainly Clear

Notes on Data Quality.

Legend

  • E = Estimated
  • M = Missing
  • NA = Not Available
  • ‡ = Partner data that is not subject to review by the National Climate Archives
Date modified: